Location: Johnson City
(36.3130°N, 82.3540°W)
Time: 17:24:30
(UTC-05:00)

X-37B - Pass Details

Date: 08 December 2021
Orbit: 334 x 337 km, 45.0° (Epoch: 11 January)

Event Time Altitude Azimuth Distance (km) Brightness Sun altitude
Rises 18:37:41 0° 269° (W) 2,096 5.8 -16.4°
Reaches altitude 10° 18:39:53 10° 284° (WNW) 1,262 4.1 -16.8°
Maximum altitude 18:42:16 24° 342° (NNW) 744 2.0 -17.2°
Enters shadow 18:42:34 24° 352° (N) 754 1.9 -17.3°
